{"data":{"norad_id":61681,"intl_designator":"2024-193W","name":"STARLINK-32426","alt_names":[],"object_type":"PAYLOAD","status":"ACTIVE","operator":null,"country":"US","launch_date":"2024-10-26","launch_site_code":"AFETR","launch_vehicle":null,"mission":null,"orbit_class":"UNKNOWN","rcs_meters":null,"size_class":null,"mass_kg":null,"dimensions":null,"purposes":["comms"],"wikipedia_slug":null,"has_3d_model":false,"image_url":null,"decayed_at":null,"tle_current":{"epoch":"2026-09-21T08:54:24.431040Z","epoch_age_seconds":113630,"freshness":"FRESH","line1":"1 61681U 24193W   26264.37111610 -.00000108  00000+0  79271-5 0  9991","line2":"2 61681  53.1596 261.5645 0001114 116.1985 243.9132 15.34387598106497","mean_motion":15.34387598,"eccentricity":0.0001114,"inclination_deg":53.1596,"raan_deg":261.5645,"arg_perigee_deg":116.1985,"mean_anomaly_deg":243.9132,"bstar":7.9271e-6,"rev_number":10649,"period_min":93.848516624937,"perigee_km":461.97802810385,"apogee_km":463.50217552213,"semimajor_km":6840.877101813,"source":"CELESTRAK","updated_at":"2026-09-22T09:00:49.404063Z"}}}